Vorticity
5 5 5 6 5 5 6 7 7 7 8 9 11 14 5 8 4 2 3 6 2 -1 12 9 8 6 5 5 4 4 5 5 5 7 7 8 7 7 6 7 6 7 7
7 8 5 6 6 6 6 7 8 8 7 9 12 12 5 3 1 4 1 2 1 12 8 7 5 4 4 6 6 6 5 5 6 6 6 7 7 7 7 7 7 7 7
5 8 6 6 7 7 6 7 8 7 7 8 11 8 -4 1 7 4 3 10 12 8 6 5 4 5 5 6 7 8 8 8 8 8 7 8 8 9 9 8 8 8 8
4 8 6 6 8 7 7 7 7 6 7 7 8 8 8 7 7 8 10 11 6 6 5 5 5 6 7 8 9 10 9 6 4 4 4 3 3 3 3 4 5 6 7
5 7 7 7 7 7 7 7 7 7 7 7 6 7 8 10 10 10 8 7 5 5 5 6 7 8 7 6 4 3 2 3 3 2 2 2 2 2 2 3 4 4 3
5 7 7 6 6 7 7 7 7 7 8 8 8 8 8 8 8 7 6 5 5 6 8 7 6 5 4 3 2 2 2 2 2 3 3 3 3 4 3 3 4 3 2
6 6 7 6 6 6 7 7 6 6 6 6 6 6 6 6 6 6 5 6 8 7 6 5 4 3 3 2 2 2 2 2 3 3 4 4 4 4 5 4 4 5 5
6 6 6 6 6 6 7 7 6 6 6 6 7 7 6 6 7 8 7 7 6 5 4 3 2 1 1 1 2 2 2 3 3 4 4 4 5 5 5 5 6 6 6
5 6 6 7 6 7 7 7 6 7 7 7 7 8 8 8 7 6 5 3 2 2 1 1 1 2 2 2 2 3 3 3 4 4 4 5 5 5 5 6 5 4 5
6 7 6 6 6 6 7 7 8 8 8 8 6 5 4 4 4 3 3 2 2 1 1 0 1 1 1 2 2 3 3 4 4 4 5 6 5 5 5 5 3 4 4
4 9 5 4 4 4 4 4 4 4 2 3 4 4 1 1 2 1 1 1 2 2 2 2 2 2 3 3 3 4 4 4 4 4 6 6 4 4 4 4 4 4 4
5 10 6 4 3 2 2 1 1 1 -0 -1 -1 1 1 -1 1 1 1 1 1 2 3 3 4 4 4 4 4 4 5 4 4 6 6 5 3 3 4 3 4 3 4
-19 7 -2 6 3 2 2 0 0 -1 -1 -1 0 -0 0 0 -1 0 0 1 2 3 4 5 6 5 6 5 5 5 5 5 6 7 6 4 3 3 4 4 3 4 5
6 -27 9 5 4 4 2 1 0 -0 -1 -2 -0 -0 1 0 1 2 2 3 3 4 4 5 6 7 7 7 8 7 7 8 8 7 6 4 4 4 4 5 3 5 8
-19 9 75 -10 -1 3 8 2 0 -0 0 -0 1 0 0 1 1 2 3 3 4 5 4 5 5 6 5 5 5 6 7 7 6 5 6 5 5 5 5 6 5 5 4
19 12 -44 45 -6 0 10 3 5 1 0 -2 -0 2 2 2 2 1 3 3 5 5 5 4 4 5 5 5 6 7 7 7 6 6 6 6 5 6 4 7 3 4 3
8 11 -12 38 2 -13 4 7 4 5 2 0 -0 -0 1 2 2 3 3 4 5 5 4 4 3 4 5 6 6 6 6 7 7 6 5 5 7 7 7 7 4 5 10
18 15 -7 5 6 28 -6 -2 9 4 6 2 1 1 2 3 3 3 5 5 6 6 3 3 3 5 5 5 5 5 5 5 5 5 6 5 6 5 7 6 9 5 11
2 -7 7 5 30 -20 -16 66 -43 22 5 9 5 -1 5 5 6 6 6 7 7 6 2 2 3 6 5 5 4 5 5 6 5 6 6 5 5 5 7 14 8 6 5
1 2 7 -3 15 -7 -6 4 -3 21 7 -2 8 8 9 11 3 8 9 10 9 5 3 2 5 5 5 4 5 6 6 5 5 5 5 5 5 7 10 11 5 3 6
7 8 3 11 7 2 13 12 9 1 0 13 10 6 5 9 9 7 15 9 8 4 1 3 5 3 4 5 3 6 5 5 6 5 5 6 8 11 11 9 9 7 13
13 11 8 7 5 6 3 4 0 8 8 8 8 11 11 11 12 15 13 12 6 4 5 5 5 6 6 3 4 5 7 6 6 6 6 9 9 11 10 8 9 10 6
8 9 13 13 9 9 6 7 8 9 9 11 3 6 18 12 17 11 9 3 6 4 5 6 7 5 6 5 6 5 7 6 6 6 7 10 9 9 10 8 8 6 9
9 9 6 6 11 13 13 11 7 6 7 9 11 7 4 5 7 6 2 1 5 6 4 3 8 6 4 4 5 5 4 5 4 4 6 8 8 8 8 7 7 7 7
8 11 6 9 10 11 10 13 8 1 13 11 4 8 11 7 6 6 4 21 15 9 5 -4 -9 -5 -6 2 -0 2 4 6 7 7 6 7 7 9 7 7 6 7 7
18 2 -2 2 3 -2 -3 2 6 11 9 14 7 11 3 15 7 9 11 -1 -0 4 8 5 12 26 17 12 12 11 9 8 9 8 8 8 9 8 8 8 8 8 9
Height
3150 3151 3152 3153 3155 3156 3158 3159 3160 3160 3161 3161 3162 3163 3165 3167 3169 3170 3172 3173 3174 3175 3175 3176 3175 3175 3174 3174 3174 3174 3173 3172 3172 3171 3171 3170 3170 3169 3168 3167 3166 3166 3165
3151 3151 3152 3154 3155 3157 3158 3160 3161 3161 3162 3162 3163 3164 3167 3169 3170 3172 3174 3175 3175 3176 3176 3177 3177 3176 3176 3176 3176 3176 3175 3175 3174 3173 3172 3172 3171 3171 3170 3169 3168 3167 3165
3149 3151 3152 3154 3156 3157 3159 3161 3161 3163 3164 3164 3165 3166 3169 3171 3172 3173 3175 3175 3176 3178 3178 3179 3179 3178 3178 3178 3178 3178 3177 3177 3176 3175 3175 3174 3173 3172 3171 3170 3170 3168 3167
3149 3151 3152 3154 3156 3158 3160 3161 3162 3164 3166 3166 3167 3168 3170 3172 3174 3175 3176 3177 3178 3179 3180 3180 3180 3180 3180 3180 3180 3180 3180 3179 3178 3177 3177 3176 3175 3174 3173 3172 3171 3170 3168
3148 3151 3153 3155 3157 3158 3160 3162 3164 3166 3167 3168 3168 3170 3171 3173 3175 3176 3177 3179 3180 3181 3182 3182 3182 3182 3182 3182 3182 3182 3182 3182 3181 3180 3179 3179 3178 3177 3175 3174 3172 3171 3170
3147 3150 3153 3155 3157 3159 3161 3162 3165 3167 3168 3170 3171 3172 3173 3174 3176 3178 3179 3180 3182 3182 3183 3184 3184 3184 3184 3185 3185 3185 3184 3184 3183 3182 3182 3181 3180 3178 3177 3175 3174 3173 3171
3147 3150 3153 3155 3157 3159 3161 3163 3165 3167 3169 3171 3173 3174 3175 3176 3178 3179 3181 3182 3183 3184 3185 3185 3185 3186 3187 3187 3187 3186 3186 3185 3184 3184 3183 3182 3180 3179 3177 3176 3174 3173 3171
3147 3150 3153 3155 3158 3160 3162 3164 3166 3168 3170 3172 3174 3176 3177 3178 3179 3181 3183 3184 3185 3186 3186 3186 3187 3187 3187 3188 3188 3188 3187 3186 3185 3184 3183 3182 3180 3179 3178 3176 3175 3173 3172
3147 3151 3153 3156 3158 3161 3163 3165 3167 3169 3171 3174 3175 3177 3178 3180 3181 3182 3184 3185 3186 3187 3187 3188 3188 3188 3188 3188 3188 3188 3187 3186 3185 3184 3183 3182 3180 3179 3178 3176 3175 3174 3172
3146 3150 3155 3157 3160 3162 3165 3167 3169 3171 3173 3175 3177 3179 3180 3181 3182 3184 3184 3185 3186 3187 3188 3188 3188 3188 3188 3188 3188 3187 3187 3186 3184 3183 3182 3181 3180 3179 3177 3176 3175 3173 3171
3145 3150 3155 3158 3160 3163 3165 3167 3170 3172 3174 3176 3178 3180 3181 3182 3183 3185 3185 3186 3187 3187 3187 3188 3188 3188 3187 3187 3187 3186 3185 3185 3184 3182 3181 3180 3179 3177 3176 3175 3174 3172 3170
3143 3148 3153 3158 3161 3163 3165 3168 3170 3173 3175 3177 3179 3180 3182 3183 3184 3185 3186 3186 3187 3187 3188 3187 3187 3187 3186 3186 3185 3185 3184 3183 3182 3181 3180 3178 3178 3176 3175 3174 3172 3170 3168
3143 3149 3153 3156 3160 3163 3165 3168 3170 3172 3174 3176 3179 3180 3182 3183 3184 3185 3185 3186 3186 3187 3187 3187 3186 3186 3185 3184 3183 3183 3182 3181 3180 3179 3178 3177 3176 3174 3173 3172 3170 3168 3167
3145 3150 3153 3154 3157 3162 3165 3167 3170 3172 3174 3175 3178 3180 3181 3183 3183 3184 3185 3185 3185 3185 3185 3185 3184 3184 3183 3183 3182 3181 3180 3179 3178 3178 3176 3175 3173 3172 3170 3169 3168 3166 3165
3142 3148 3154 3154 3154 3158 3164 3167 3168 3171 3173 3175 3177 3179 3180 3181 3182 3183 3183 3183 3183 3183 3183 3183 3182 3182 3181 3180 3180 3179 3178 3178 3176 3176 3174 3173 3171 3169 3167 3165 3164 3163 3162
3139 3143 3148 3152 3150 3156 3160 3164 3168 3170 3171 3173 3175 3177 3178 3180 3180 3181 3181 3181 3181 3181 3181 3181 3180 3179 3178 3178 3177 3176 3175 3175 3174 3172 3171 3170 3168 3167 3164 3162 3161 3159 3158
3136 3140 3143 3143 3153 3154 3157 3160 3164 3167 3169 3170 3172 3174 3176 3177 3178 3178 3178 3179 3178 3178 3178 3178 3178 3177 3177 3176 3174 3173 3172 3171 3170 3170 3168 3167 3165 3164 3161 3159 3156 3156 3154
3135 3137 3138 3143 3146 3148 3155 3156 3160 3161 3164 3167 3169 3170 3172 3173 3174 3174 3175 3175 3175 3175 3175 3175 3175 3174 3173 3172 3171 3170 3169 3168 3167 3166 3165 3162 3160 3158 3156 3154 3152 3150 3150
3132 3134 3136 3141 3142 3146 3151 3153 3156 3156 3159 3161 3164 3164 3166 3168 3169 3170 3170 3170 3171 3171 3171 3171 3171 3170 3169 3168 3167 3166 3165 3164 3163 3161 3160 3157 3154 3153 3151 3150 3148 3146 3143
3127 3128 3135 3137 3140 3142 3147 3147 3153 3154 3153 3154 3157 3159 3161 3162 3162 3163 3164 3165 3166 3167 3167 3167 3166 3166 3165 3164 3162 3161 3160 3159 3157 3156 3154 3152 3149 3147 3145 3143 3142 3140 3139
3124 3128 3132 3133 3135 3142 3143 3143 3145 3147 3148 3149 3151 3154 3155 3156 3156 3157 3158 3159 3161 3162 3162 3162 3162 3161 3160 3158 3157 3156 3155 3154 3153 3152 3148 3147 3144 3142 3139 3137 3136 3135 3133
3120 3125 3127 3131 3133 3134 3136 3136 3137 3143 3145 3146 3147 3148 3148 3149 3149 3150 3152 3154 3155 3156 3157 3157 3157 3156 3155 3153 3151 3149 3147 3149 3147 3145 3143 3141 3139 3135 3133 3131 3131 3129 3127
3117 3121 3124 3128 3130 3131 3132 3134 3136 3137 3139 3140 3141 3143 3142 3143 3144 3145 3146 3148 3150 3151 3151 3151 3151 3150 3150 3149 3147 3144 3140 3138 3138 3138 3136 3134 3131 3129 3126 3125 3125 3124 3122
3116 3118 3120 3123 3125 3128 3130 3131 3132 3135 3136 3134 3135 3136 3137 3138 3139 3140 3141 3141 3141 3142 3142 3145 3145 3145 3145 3145 3143 3141 3138 3133 3130 3128 3130 3128 3125 3123 3120 3119 3118 3117 3115
3111 3115 3116 3119 3122 3124 3125 3126 3127 3130 3132 3132 3129 3133 3132 3130 3130 3131 3132 3134 3137 3137 3139 3141 3140 3139 3139 3137 3136 3134 3132 3129 3125 3120 3118 3123 3120 3116 3114 3112 3111 3110 3109
3103 3109 3112 3114 3117 3120 3121 3122 3123 3123 3126 3125 3127 3129 3128 3126 3128 3128 3130 3131 3133 3133 3134 3134 3133 3132 3130 3129 3128 3127 3124 3121 3119 3115 3112 3110 3111 3110 3107 3106 3104 3103 3102